[[{"header":{"parameterUnit":"m.s-1","parameterCategory":1,"la1":30.2991,"la2":30.254,"lo1":-89.0895,"lo2":-89.0444,"dy":0.0017,"dx":0.0017,"nx":28,"ny":28,"refTime":"2024-07-20T21:00:00:Z","depth":0,"parameterNumber":2,"parameterNumberName":"U-component_of_WINDS"},"data":[0,0,0,0,0,0,0,0,0,0,0,0,0,0,0,0,0,0,0,0,0,0,0,0,0,0,0,0,0,0,0,0,0,0,0,0,0,0,0,0,0,0,0,0,0,0,0,0,0,0,0,0,0,0,0,0,0,0,-0.0644,-0.0643,0,-0.0606,-0.0606,-0.0605,-0.0576,-0.0576,-0.0576,-0.0575,-0.0538,-0.0537,-0.0536,0,0,0,0,0,0,0,0,0,0,0,0,0,-0.0692,-0.0691,-0.0644,-0.0643,-0.0643,-0.0606,-0.0606,-0.0605,-0.0576,-0.0576,-0.0576,-0.0575,-0.0538,-0.0537,-0.0536,0,0,0,0,0,0,0,0,0,0,0,0,0,-0.0664,-0.0691,-0.0644,-0.0624,-0.0622,-0.0606,-0.0606,-0.0605,-0.0576,-0.0576,-0.0576,-0.0575,-0.0538,-0.0537,-0.0536,-0.0537,0,0,-0.0533,-0.0532,0,0,0,0,0,0,0,0,-0.0666,-0.0662,-0.0627,-0.0625,-0.0623,-0.0595,-0.0609,-0.0582,-0.0576,-0.0594,-0.0575,-0.0575,-0.0557,-0.0555,-0.0548,-0.0536,-0.0534,-0.0532,-0.0532,-0.0531,-0.0531,0,0,0,0,0,0,0,-0.0668,-0.0664,-0.0629,-0.0627,-0.0624,-0.0617,-0.0613,-0.0603,-0.0578,-0.0592,-0.059,-0.0586,-0.0556,-0.055,-0.0547,-0.0533,-0.0532,-0.0531,-0.0531,-0.053,-0.052,-0.052,0,0,0,0,0,0,-0.0673,-0.0666,-0.063,-0.0628,-0.0644,-0.0617,-0.0612,-0.0605,-0.0578,-0.0574,-0.0586,-0.0585,-0.0552,-0.0549,-0.0546,-0.0545,-0.0531,-0.053,-0.053,-0.0519,-0.052,-0.052,0,0,0,0,0,0,-0.0674,-0.067,-0.0632,-0.0646,-0.0641,-0.0616,-0.0609,-0.0604,-0.0598,-0.0574,-0.0569,-0.0584,-0.0551,-0.0547,-0.054,-0.0544,-0.053,-0.0529,-0.0519,-0.0519,-0.052,-0.0545,0,0,0,0,0,0,-0.0675,-0.067,-0.067,-0.0646,-0.064,-0.0626,-0.0609,-0.0604,-0.0596,-0.0593,-0.0571,-0.0567,-0.0551,-0.0541,-0.0538,-0.0542,-0.0528,-0.0518,-0.0519,-0.052,-0.0544,-0.0546,-0.0548,0,0,0,0,0,-0.0677,-0.0679,-0.067,-0.0666,-0.0639,-0.0626,-0.0622,-0.0604,-0.0596,-0.0596,-0.0581,-0.0567,-0.0544,-0.0541,-0.0537,-0.054,-0.0518,-0.0519,-0.052,-0.0542,-0.0546,-0.0548,0,0,0,0,0,0,-0.0704,-0.0675,-0.0666,-0.066,-0.0645,-0.0621,-0.062,-0.0608,-0.0596,-0.0594,-0.0571,-0.0567,-0.0561,-0.055,-0.0547,-0.054,-0.0529,-0.0529,-0.0548,-0.0551,-0.0553,-0.0556,-0.0527,0,0,0,0,0,-0.0709,-0.0701,-0.0676,-0.0673,-0.0667,-0.0645,-0.0638,-0.0625,-0.061,-0.0603,-0.0588,-0.0573,-0.0563,-0.0556,-0.0545,-0.0542,-0.0537,-0.0543,-0.0545,-0.0547,-0.0547,-0.0545,-0.0547,-0.0523,-0.0523,-0.0523,0,0,-0.072,-0.0703,-0.0699,-0.0678,-0.0666,-0.0657,-0.064,-0.0632,-0.0625,-0.0602,-0.0594,-0.0582,-0.0564,-0.0559,-0.0556,-0.0549,-0.0553,-0.0548,-0.055,-0.0549,-0.0546,-0.0549,-0.0551,-0.0524,-0.0524,-0.0524,0,0,-0.0735,-0.0722,-0.0718,-0.0706,-0.0687,-0.0672,-0.0672,-0.0649,-0.064,-0.0631,-0.0614,-0.0606,-0.0588,-0.0577,-0.0568,-0.058,-0.0567,-0.0577,-0.059,-0.0588,-0.059,-0.0591,-0.0595,-0.0597,-0.0577,-0.0578,-0.0578,0,-0.0751,-0.0737,-0.0718,-0.071,-0.0702,-0.0681,-0.0677,-0.0666,-0.0645,-0.0639,-0.0633,-0.061,-0.0597,-0.0588,-0.0591,-0.0585,-0.0583,-0.0579,-0.0591,-0.0592,-0.0593,-0.0597,-0.0598,-0.0579,-0.0579,-0.0579,-0.0578,0,-0.0758,-0.0749,-0.0748,-0.0727,-0.0719,-0.0713,-0.0693,-0.0687,-0.0675,-0.0661,-0.0652,-0.0636,-0.0621,-0.0618,-0.0606,-0.0608,-0.0605,-0.0595,-0.0583,-0.0597,-0.06,-0.0601,-0.0581,-0.058,-0.058,-0.058,0,0,-0.0788,-0.0757,-0.0757,-0.0748,-0.0726,-0.0718,-0.0712,-0.0698,-0.0693,-0.0679,-0.0673,-0.0659,-0.0649,-0.064,-0.0627,-0.0625,-0.0635,-0.0615,-0.0615,-0.0619,-0.0636,-0.0643,-0.0645,-0.0627,-0.0627,-0.0627,-0.0637,0,-0.08,-0.0787,-0.0769,-0.0762,-0.0754,-0.0734,-0.0728,-0.0714,-0.0702,-0.0693,-0.0679,-0.0669,-0.0658,-0.0652,-0.0649,-0.0634,-0.0638,-0.0633,-0.0621,-0.0621,-0.0626,-0.0646,-0.0654,-0.0665,-0.0638,-0.0638,-0.0639,0,-0.0811,-0.0798,-0.079,-0.0769,-0.0765,-0.076,-0.0745,-0.0737,-0.0721,-0.0712,-0.0702,-0.0688,-0.068,-0.067,-0.066,-0.0657,-0.0651,-0.0644,-0.0644,-0.0641,-0.063,-0.0644,-0.0667,-0.0669,-0.064,-0.064,-0.064,0,-0.0834,-0.0815,-0.0807,-0.08,-0.0775,-0.0772,-0.0762,-0.0745,-0.0738,-0.0725,-0.072,-0.0707,-0.07,-0.069,-0.0673,-0.0667,-0.0664,-0.0653,-0.0657,-0.0657,-0.0656,-0.0657,-0.0678,-0.0653,-0.0653,-0.0653,-0.0653,0,-0.0848,-0.0844,-0.0817,-0.0813,-0.0808,-0.0788,-0.0784,-0.0771,-0.0757,-0.075,-0.0732,-0.0726,-0.0704,-0.0696,-0.0682,-0.0676,-0.0673,-0.0665,-0.0662,-0.0666,-0.0667,-0.0662,-0.0661,-0.0654,-0.0654,-0.0654,-0.0654,0,-0.0872,-0.0854,-0.0845,-0.0822,-0.0816,-0.0814,-0.0794,-0.079,-0.0776,-0.0768,-0.0765,-0.0743,-0.0733,-0.0714,-0.0698,-0.0689,-0.0685,-0.068,-0.0691,-0.0688,-0.0693,-0.0693,-0.0712,-0.0713,-0.0688,-0.0688,-0.0688,0,-0.0882,-0.0879,-0.0856,-0.0849,-0.084,-0.083,-0.0822,-0.0803,-0.0795,-0.0777,-0.0775,-0.0762,-0.0751,-0.0735,-0.0718,-0.0706,-0.0699,-0.0707,-0.0697,-0.0703,-0.0699,-0.07,-0.0699,-0.0709,-0.0709,-0.071,-0.071,0,-0.0902,-0.0893,-0.0882,-0.0869,-0.086,-0.0848,-0.0835,-0.0831,-0.0809,-0.0802,-0.079,-0.0782,-0.0765,-0.0753,-0.0739,-0.0728,-0.0716,-0.0713,-0.0713,-0.0718,-0.0725,-0.0721,-0.0696,-0.0713,-0.0712,-0.0712,-0.0712,-0.0712,-0.0919,-0.0915,-0.0898,-0.0887,-0.0875,-0.0864,-0.0858,-0.0844,-0.0834,-0.0819,-0.0808,-0.0797,-0.0782,-0.0761,-0.0751,-0.0743,-0.0737,-0.0737,-0.0737,-0.0738,-0.0739,-0.0726,-0.074,-0.074,-0.074,-0.074,-0.074,0,-0.0937,-0.0926,-0.0915,-0.0898,-0.0889,-0.0878,-0.0864,-0.0857,-0.0848,-0.0834,-0.0824,-0.0811,-0.0799,-0.0782,-0.0769,-0.0766,-0.076,-0.0763,-0.0763,-0.0761,-0.0745,-0.0746,-0.0768,-0.0768,-0.0768,-0.0768,-0.0768,-0.0768,-0.0946,-0.0938,-0.0928,-0.0914,-0.0903,-0.0892,-0.0885,-0.0874,-0.0863,-0.085,-0.084,-0.0829,-0.0814,-0.08,-0.0789,-0.0784,-0.078,-0.0785,-0.0779,-0.0765,-0.0762,-0.0759,-0.076,-0.0785,-0.0785,-0.0795,-0.0795,-0.0795]},{"header":{"parameterUnit":"m.s-1","parameterCategory":1,"la1":30.2991,"la2":30.254,"lo1":-89.0895,"lo2":-89.0444,"dy":0.0017,"dx":0.0017,"nx":28,"ny":28,"refTime":"2024-07-20T21:00:00:Z","depth":0,"parameterNumber":3,"parameterNumberName":"V-component_of_WINDS"},"data":[0,0,0,0,0,0,0,0,0,0,0,0,0,0,0,0,0,0,0,0,0,0,0,0,0,0,0,0,0,0,0,0,0,0,0,0,0,0,0,0,0,0,0,0,0,0,0,0,0,0,0,0,0,0,0,0,0,0,0.3847,0.3848,0,0.3896,0.3897,0.3898,0.3922,0.3922,0.3922,0.3922,0.3974,0.3976,0.3977,0,0,0,0,0,0,0,0,0,0,0,0,0,0.3777,0.3778,0.3847,0.3848,0.3849,0.3896,0.3897,0.3898,0.3922,0.3922,0.3922,0.3922,0.3974,0.3975,0.3977,0,0,0,0,0,0,0,0,0,0,0,0,0,0.3815,0.3778,0.3847,0.3866,0.3869,0.3896,0.3897,0.3898,0.3922,0.3922,0.3922,0.3922,0.3973,0.3975,0.3977,0.399,0,0,0.3984,0.3985,0,0,0,0,0,0,0,0,0.3813,0.3818,0.3863,0.3865,0.3868,0.3903,0.3891,0.3929,0.3922,0.3902,0.3922,0.3922,0.3951,0.3955,0.3964,0.3993,0.3995,0.3984,0.3985,0.3986,0.3987,0,0,0,0,0,0,0,0.381,0.3816,0.3867,0.3864,0.3866,0.3873,0.3879,0.3899,0.3926,0.3903,0.3905,0.3911,0.3952,0.3962,0.3965,0.3996,0.3984,0.3986,0.3987,0.3988,0.4038,0.4039,0,0,0,0,0,0,0.3804,0.3813,0.3865,0.3868,0.384,0.3874,0.3881,0.3892,0.3925,0.3931,0.3911,0.3912,0.3958,0.3963,0.3967,0.3985,0.3986,0.3988,0.3989,0.4038,0.4038,0.4039,0,0,0,0,0,0,0.3802,0.3808,0.3863,0.3841,0.3849,0.3876,0.3888,0.3893,0.3903,0.3931,0.3936,0.3916,0.3958,0.3964,0.3984,0.3987,0.3989,0.3991,0.4038,0.4038,0.4039,0.4021,0,0,0,0,0,0,0.38,0.3808,0.3812,0.3841,0.385,0.3879,0.3888,0.3894,0.3906,0.3908,0.3937,0.3942,0.3959,0.3981,0.3986,0.399,0.3992,0.4038,0.4038,0.4039,0.4021,0.402,0.4019,0,0,0,0,0,0.3798,0.3806,0.3813,0.3819,0.3856,0.3879,0.3884,0.3903,0.3906,0.3911,0.393,0.3941,0.3986,0.3983,0.3989,0.3994,0.4038,0.4038,0.4038,0.4021,0.402,0.4019,0,0,0,0,0,0,0.3778,0.381,0.3818,0.3835,0.3854,0.3883,0.389,0.3901,0.392,0.3921,0.3944,0.3951,0.3969,0.3983,0.3979,0.4008,0.4013,0.4015,0.3998,0.3997,0.3996,0.3993,0.3994,0,0,0,0,0,0.3775,0.379,0.3818,0.3831,0.384,0.3863,0.3874,0.3887,0.3908,0.3916,0.3936,0.3956,0.3975,0.3987,0.4006,0.4023,0.403,0.4029,0.4028,0.4027,0.4029,0.4039,0.4039,0.4039,0.4039,0.4039,0,0,0.377,0.379,0.3798,0.3827,0.3843,0.3859,0.387,0.3886,0.3899,0.3919,0.3939,0.3954,0.3978,0.3997,0.4006,0.401,0.403,0.4028,0.4027,0.4029,0.404,0.404,0.404,0.4039,0.4039,0.4039,0,0,0.3769,0.3785,0.3798,0.3814,0.3838,0.3853,0.3856,0.3884,0.3894,0.3915,0.393,0.3946,0.3977,0.3994,0.4007,0.4012,0.4024,0.4018,0.4013,0.4024,0.4024,0.4024,0.4026,0.4027,0.4019,0.4019,0.4019,0,0.3761,0.3784,0.3803,0.3819,0.3831,0.3849,0.3863,0.3878,0.3907,0.3915,0.3918,0.3959,0.3976,0.4,0.4001,0.401,0.4015,0.4015,0.4022,0.4022,0.4023,0.4025,0.4026,0.4018,0.4018,0.4018,0.4018,0,0.3772,0.3789,0.3796,0.3823,0.3837,0.3851,0.3873,0.3884,0.3896,0.3911,0.3932,0.3954,0.3978,0.3984,0.3996,0.4009,0.401,0.4017,0.4023,0.4021,0.4024,0.4025,0.4017,0.4017,0.4017,0.4017,0,0,0.3761,0.3798,0.38,0.3813,0.3841,0.3854,0.3869,0.3892,0.3901,0.3921,0.3935,0.3961,0.3968,0.3982,0.3996,0.4005,0.4008,0.4011,0.4012,0.401,0.4025,0.402,0.402,0.4016,0.4016,0.4016,0.4023,0,0.3764,0.3792,0.3809,0.383,0.3846,0.3863,0.3877,0.3896,0.3911,0.3927,0.3944,0.3962,0.3969,0.3978,0.3987,0.4006,0.4012,0.4006,0.403,0.403,0.4023,0.4022,0.4016,0.4022,0.4024,0.4024,0.4025,0,0.3772,0.379,0.3812,0.3839,0.3846,0.3858,0.388,0.3895,0.3917,0.3927,0.3943,0.3957,0.3974,0.3978,0.4003,0.3998,0.4009,0.402,0.4021,0.4024,0.4028,0.4026,0.4024,0.4025,0.4026,0.4026,0.4026,0,0.3761,0.3792,0.3809,0.3819,0.385,0.3858,0.3872,0.3893,0.3906,0.3926,0.3934,0.3955,0.3967,0.3984,0.4004,0.4004,0.4027,0.4032,0.4037,0.4036,0.4041,0.404,0.4041,0.4047,0.4047,0.4047,0.4047,0,0.3764,0.3777,0.3805,0.3815,0.3831,0.3851,0.3866,0.3881,0.39,0.3915,0.3931,0.3945,0.397,0.3986,0.4002,0.402,0.4026,0.4035,0.4039,0.4034,0.4032,0.4041,0.4042,0.4047,0.4047,0.4047,0.4047,0,0.3755,0.3774,0.3794,0.3822,0.3829,0.3839,0.3863,0.3874,0.389,0.3908,0.3913,0.3938,0.3959,0.398,0.4008,0.4018,0.4036,0.4042,0.4028,0.4031,0.4034,0.4034,0.4041,0.4043,0.4047,0.4047,0.4047,0,0.3755,0.3765,0.3794,0.3804,0.3817,0.3834,0.3846,0.3867,0.388,0.3906,0.3914,0.3935,0.3954,0.3986,0.4007,0.4028,0.4034,0.4035,0.4038,0.4032,0.4035,0.4034,0.4035,0.4035,0.4034,0.4034,0.4034,0,0.3754,0.3763,0.378,0.38,0.3815,0.3832,0.385,0.3858,0.3882,0.3896,0.3916,0.3931,0.3959,0.398,0.4004,0.4018,0.4031,0.4033,0.4035,0.403,0.4022,0.4027,0.4027,0.4033,0.4033,0.4033,0.4033,0.4033,0.375,0.376,0.3782,0.38,0.3816,0.3832,0.3844,0.3861,0.3879,0.3903,0.3914,0.3935,0.3957,0.399,0.4004,0.4021,0.4025,0.4028,0.4029,0.4029,0.4028,0.4019,0.4026,0.4026,0.4026,0.4026,0.4026,0,0.375,0.3764,0.3781,0.3806,0.3821,0.383,0.385,0.3862,0.388,0.3899,0.3917,0.3941,0.3962,0.3984,0.4006,0.4016,0.4022,0.4021,0.4021,0.4024,0.4024,0.402,0.4015,0.4015,0.4015,0.4015,0.4015,0.4015,0.3752,0.3769,0.3781,0.3806,0.3821,0.3841,0.3852,0.3868,0.3883,0.3909,0.3926,0.394,0.3961,0.3985,0.4004,0.4011,0.4018,0.4016,0.4023,0.4023,0.4024,0.4025,0.4021,0.4017,0.4017,0.4022,0.4022,0.4022]}]]